Tracking 29069 objects as of 18-Jul-2024
HD Live streaming from Space Station
objects crossing your sky now

COSMOS 637

Track COSMOS 637 now!
COSMOS 637 is classified as:


NORAD ID: 7229
Int'l Code: 1974-017A
Perigee: 35,494.8 km
Apogee: 35,813.5 km
Inclination: 2.6 °
Period: 1,429.0 minutes
Semi major axis: 42025 km
RCS: 2.5118 m2 (large)
Launch date: March 26, 1974
Source: Commonwealth of Independent States (former USSR) (CIS)
Launch site: TYURATAM MISSILE AND SPACE COMPLEX (TTMTR)
Your satellite tracking list
Your tracking list is empty




NASA's NSSDC Master Catalog

Two Line Element Set (TLE):
1 07229U 74017A   24199.84493831  .00000098  00000-0  00000-0 0  9991
2 07229   2.6211 271.8673 0037919  48.3251  93.5469  1.00771862115151
Source of the keplerian elements: AFSPC